Terminal Aerodrome Forecast
Issued by NWS Sterling, VA

Current Version | Previous Version | Graphics & Text | Print | Product List | Glossary On
Versions: 1 2 3 4 5 6 7 8 9 10 11 12 13 14 15 16 17 18 19 20 21 22 23 24 25
166
FTUS41 KLWX 231511 AAB
TAFIAD
TAF AMD
KIAD 231511Z 2315/2418 14007KT P6SM BKN010
     FM231800 16008KT P6SM BKN025
     FM240000 15012KT P6SM -SHRA OVC035
     FM240300 15013KT 5SM SHRA OVC025 WS020/16040KT
     FM240900 17011G19KT P6SM SHRA BKN050
     FM241200 19007KT P6SM BKN100
     FM241400 21006KT P6SM SCT100=

USA.gov is the U.S. government's official web portal to all federal, state and local government web resources and services.